Regional Weather Roundup
Issued by NWS

Home | Current Version | Previous Version | Graphics & Text | Print | Product List | Glossary On
Versions: 1 2 3 4 5 6 7 8 9 10 11 12 13 14 15 16 17 18 19 20 21 22 23 24 25 26 27 28 29 30 31 32 33 34 35 36 37 38 39 40 41 42 43 44 45 46 47 48 49 50
000
ASUS43 KLOT 302102
RWRIL

ILLINOIS REGIONAL WEATHER ROUNDUP
NATIONAL WEATHER SERVICE CHICAGO/ROMEOVILLE IL
400 PM CDT SAT MAY 30 2015

NOTE: "FAIR" INDICATES FEW OR NO CLOUDS BELOW 12,000 FEET WITH NO
SIGNIFICANT WEATHER AND/OR OBSTRUCTIONS TO VISIBILITY.

* THESE STATIONS ARE NOT UNDER NWS QUALITY CONTROL. THEY ALSO MAY NOT
  REPORT WEATHER SUCH AS PRECIPITATION OR FOG.

ILZ001-002-007-009-015-016-024-302200-
NORTHWEST ILLINOIS

CITY           SKY/WX    TMP DP  RH WIND       PRES   REMARKS
MOLINE         CLOUDY    58  52  80 NE18G25   30.04R
STERLING*      CLOUDY    55  52  88 NE13G22   30.06R
$$

ILZ003-004-008-010-011-017-018-302200-
NORTH CENTRAL ILLINOIS

CITY           SKY/WX    TMP DP  RH WIND       PRES   REMARKS
ROCKFORD       CLOUDY    54  48  80 NE23G29   30.11R
FREEPORT*      CLOUDY    52  48  87 NE20G30   30.12R
$$

ILZ005-006-012>014-019>023-302200-
NORTHEAST ILLINOIS

CITY           SKY/WX    TMP DP  RH WIND       PRES   REMARKS
CHICAGO-OHARE  RAIN      48  46  93 N22G31    30.06R
CHICAGO-MIDWAY LGT RAIN  51  48  89 N23G35    30.04R FOG
AURORA         LGT RAIN  53  49  86 NE22G28   30.04R FOG
WAUKEGAN       LGT RAIN  46  45  96 N17G32    30.07R
DUPAGE AIRPORT RAIN      51  49  92 NE18G25   30.05R FOG
WHEELING       LGT RAIN  48  46  93 N16G29    30.09R FOG
NORTHERLY ISL    N/A     48  46  93 N25         N/A
$$

LMZ740>746-302200-
SOUTHERN LAKE MICHIGAN

STATION/POSITION SKY/WX   TEMP    WIND        PRES    VSBY  WAVE
                          AIR SEA DIR/SP/G                  HT/PER
                          (F)     (DEG/KT/KT) (MB)    (MI)  (FT/S)
SOUTHERN BUOY              42 38  360/ 23/ 27 1017.4          6/ 6
HARRISON CRIB              47     350/ 30/ 35   N/A
BURNHAM HARBOR             48     340/ 20/ 24   N/A
CALUMET HARBOR             48     340/ 20/ 26   N/A
BURNS HARBOR               47      10/ 12/ 14 1017.3S
MICHIGAN CITY              46     360/ 12/ 14   N/A
MICHIGAN CITY 6N           46 56   30/ 12/ 16   N/A           4/ 4
ST. JOSEPH                 50 57   30/ 16/ 17   N/A           3/ 3
$$

ILZ025>027-034>036-040-047-049-050-058-095>099-302200-
WEST-CENTRAL ILLINOIS

CITY           SKY/WX    TMP DP  RH WIND       PRES   REMARKS
QUINCY         CLOUDY    66  63  90 NW15      29.99R
MACOMB*        CLOUDY    69  66  88 N23G29    29.99R
$$

ILZ028>032-037-038-041>044-048-051>054-059>061-302200-
CENTRAL ILLINOIS

CITY           SKY/WX    TMP DP  RH WIND       PRES   REMARKS
DECATUR        CLOUDY    71  68  90 NW14      29.92R
PEORIA         CLOUDY    71  65  81 N5        29.96S
SPRINGFIELD    LGT RAIN  70  66  87 N9        29.95S
TAYLORVILLE    NOT AVBL
$$

ILZ033-039-045-046-055>057-062-063-302200-
EAST-CENTRAL ILLINOIS

CITY           SKY/WX    TMP DP  RH WIND       PRES   REMARKS
CHAMPAIGN      CLOUDY    75  69  81 SW7       29.92R
MATTOON        PTSUNNY   75  68  78 W5        29.89F
$$

ILZ079-100>102-302200-
SOUTHWEST ILLINOIS

CITY           SKY/WX    TMP DP  RH WIND       PRES   REMARKS
BELLEVILLE     CLOUDY    69  69 100 NW10      29.90R
CAHOKIA*       CLOUDY    72  66  81 N13       29.92S
SPARTA*        DRIZZLE   69  69  98 NW6       29.91S
$$

ILZ064>066-069>071-074>076-080>082-084>086-088>090-092>094-302200-
SOUTH-CENTRAL ILLINOIS

CITY           SKY/WX    TMP DP  RH WIND       PRES   REMARKS
CARBONDALE     CLOUDY    73  68  84 S13       29.88F
MARION         LGT RAIN  72  68  88 S9        29.90F
MT. VERNON     CLOUDY    70  64  83 S7        29.92F
SALEM*         PTSUNNY   75  69  81 S14       29.91R THUNDER
$$

ILZ067-068-072-073-078-083-087-091-302200-
SOUTHEAST ILLINOIS

CITY           SKY/WX    TMP DP  RH WIND       PRES   REMARKS
LAWRENCEVILLE  MOSUNNY   84  64  50 S23G32    29.89F HX  85
ROBINSON*      MOSUNNY   82  66  58 SW9       29.90F HX  83
$$

ABBREVIATIONS USED IN REMARKS
   TC - TEMPERATURE IN CELSIUS
  WCI - WIND CHILL INDEX
   HX - HEAT INDEX
  VSB - VISIBILITY
$$



USA.gov is the U.S. government's official web portal to all federal, state and local government web resources and services.